| time (UTC) | temp C | wind direction | speed KPH | gust KPH | rain 1hr cm | rain 24hr cm | rain mn cm | humidity % | barometer mb |
| 20260504081516 | 6 | 121 | 0.0 | 0.0 | 0.00 | 0.00 | 0.00 | 82 | 1014.4 |
| 20260504050104 | 7 | 220 | 0.0 | 0.0 | 0.00 | 0.00 | 0.00 | 68 | 1014.4 |
| 20260504044604 | 6 | 221 | 0.0 | 1.6 | 0.00 | 0.00 | 0.00 | 70 | 1014.4 |
| 20260504043056 | 6 | 169 | 0.0 | 0.0 | 0.00 | 0.00 | 0.00 | 72 | 1014.2 |
| 20260504041554 | 6 | 179 | 0.0 | 3.2 | 0.00 | 0.00 | 0.00 | 72 | 1014.1 |
| 20260504040052 | 6 | 192 | 0.0 | 0.0 | 0.00 | 0.00 | 0.00 | 72 | 1014.0 |
| 20260504034557 | 6 | 199 | 0.0 | 4.8 | 0.00 | 0.00 | 0.00 | 71 | 1013.9 |
| 20260504033056 | 6 | 165 | 0.0 | 0.0 | 0.00 | 0.00 | 0.00 | 72 | 1013.9 |
| 20260504031552 | 6 | 166 | 0.0 | 0.0 | 0.00 | 0.00 | 0.00 | 71 | 1013.7 |
| 20260504030051 | 6 | 166 | 0.0 | 0.0 | 0.00 | 0.00 | 0.00 | 71 | 1013.7 |
| 20260504024550 | 7 | 166 | 0.0 | 0.0 | 0.00 | 0.00 | 0.00 | 70 | 1013.7 |
| 20260504023050 | 7 | 166 | 0.0 | 0.0 | 0.00 | 0.00 | 0.00 | 68 | 1013.8 |
| 20260504021549 | 7 | 166 | 0.0 | 0.0 | 0.00 | 0.00 | 0.00 | 66 | 1013.8 |
| 20260504020049 | 8 | 157 | 0.0 | 0.0 | 0.00 | 0.00 | 0.00 | 65 | 1013.8 |
| 20260504014549 | 8 | 157 | 0.0 | 0.0 | 0.00 | 0.00 | 0.00 | 64 | 1013.7 |
| 20260504013050 | 8 | 157 | 0.0 | 0.0 | 0.00 | 0.00 | 0.00 | 62 | 1013.6 |
| 20260504011549 | 9 | 224 | 0.0 | 0.0 | 0.00 | 0.00 | 0.00 | 61 | 1013.4 |
| 20260504010054 | 9 | 225 | 0.0 | 0.0 | 0.00 | 0.00 | 0.00 | 60 | 1013.4 |
| 20260504004546 | 10 | 223 | 0.0 | 0.0 | 0.00 | 0.00 | 0.00 | 59 | 1013.3 |
| 20260504003046 | 10 | 219 | 0.0 | 0.0 | 0.00 | 0.00 | 0.00 | 55 | 1013.0 |
| 20260504001605 | 11 | 219 | 0.0 | 0.0 | 0.00 | 0.00 | 0.00 | 54 | 1012.6 |
| 20260504000048 | 12 | 219 | 0.0 | 0.0 | 0.00 | 0.00 | 0.00 | 50 | 1012.5 |
| 20260503234544 | 13 | 297 | 0.0 | 12.9 | 0.00 | 0.00 | 0.00 | 46 | 1012.6 |
| 20260503233043 | 13 | 274 | 0.0 | 16.1 | 0.00 | 0.00 | 0.00 | 46 | 1012.4 |
| 20260503231543 | 13 | 293 | 0.0 | 9.7 | 0.00 | 0.00 | 0.00 | 43 | 1012.3 |
| 20260503230043 | 14 | 252 | 0.0 | 14.5 | 0.00 | 0.00 | 0.00 | 44 | 1012.3 |
| 20260503224542 | 14 | 171 | 1.6 | 19.3 | 0.00 | 0.00 | 0.00 | 40 | 1012.3 |
| 20260503223043 | 14 | 268 | 6.4 | 20.9 | 0.00 | 0.00 | 0.00 | 41 | 1012.2 |
| 20260503221544 | 15 | 307 | 4.8 | 20.9 | 0.00 | 0.00 | 0.00 | 39 | 1012.3 |
| 20260503220100 | 15 | 226 | 4.8 | 22.5 | 0.00 | 0.00 | 0.00 | 39 | 1012.3 |
| 20260503214539 | 15 | 266 | 6.4 | 20.9 | 0.00 | 0.00 | 0.00 | 42 | 1012.3 |
| 20260503213041 | 15 | 304 | 6.4 | 17.7 | 0.00 | 0.00 | 0.00 | 39 | 1012.2 |
| 20260503211555 | 15 | 170 | 1.6 | 29.0 | 0.00 | 0.00 | 0.00 | 39 | 1012.2 |
| 20260503210037 | 15 | 304 | 3.2 | 30.6 | 0.00 | 0.00 | 0.00 | 40 | 1012.0 |
| 20260503204537 | 15 | 223 | 0.0 | 20.9 | 0.00 | 0.00 | 0.00 | 41 | 1012.1 |
| 20260503203036 | 15 | 290 | 6.4 | 27.4 | 0.00 | 0.00 | 0.00 | 39 | 1012.4 |
| 20260503201534 | 15 | 279 | 6.4 | 22.5 | 0.00 | 0.00 | 0.00 | 42 | 1012.6 |
| 20260503200134 | 15 | 297 | 8.0 | 33.8 | 0.00 | 0.00 | 0.00 | 43 | 1012.7 |
| 20260503194532 | 15 | 284 | 6.4 | 22.5 | 0.00 | 0.00 | 0.00 | 42 | 1012.6 |
| 20260503193033 | 15 | 254 | 3.2 | 22.5 | 0.00 | 0.00 | 0.00 | 43 | 1012.8 |
| 20260503191528 | 14 | 285 | 4.8 | 24.1 | 0.00 | 0.00 | 0.00 | 47 | 1012.9 |
| 20260503190035 | 15 | 250 | 6.4 | 22.5 | 0.00 | 0.00 | 0.00 | 44 | 1013.0 |
| 20260503184528 | 14 | 227 | 9.7 | 25.7 | 0.00 | 0.00 | 0.00 | 42 | 1013.1 |
| 20260503183035 | 14 | 247 | 8.0 | 27.4 | 0.00 | 0.00 | 0.00 | 40 | 1013.1 |
| 20260503181540 | 13 | 229 | 6.4 | 29.0 | 0.00 | 0.00 | 0.00 | 49 | 1013.3 |
| 20260503180023 | 13 | 255 | 4.8 | 32.2 | 0.00 | 0.00 | 0.00 | 44 | 1013.3 |
| 20260503174521 | 13 | 300 | 1.6 | 25.7 | 0.00 | 0.00 | 0.00 | 47 | 1013.3 |
| 20260503173039 | 13 | 115 | 1.6 | 19.3 | 0.00 | 0.00 | 0.00 | 45 | 1013.4 |
| 20260503171518 | 12 | 217 | 6.4 | 24.1 | 0.00 | 0.00 | 0.00 | 46 | 1013.4 |